Location: Zagreb
(45.8000°N, 16.0000°E)
Time: 06:29:08
(UTC+02:00)

Courier 1B - Pass Details

Date: 15 August 2020
Orbit: 962 x 1209 km, 28.3° (Epoch: 27 September)

Event Time Altitude Azimuth Distance (km) Brightness Sun altitude
Rises 18:21:03 0° 230° (SW) 4,073 11.5 16.6°
Reaches altitude 10° 18:24:56 10° 213° (SSW) 3,080 10.6 15.9°
Maximum altitude 18:29:47 18° 173° (S) 2,461 9.6 15.1°
Drops below altitude 10° 18:34:31 10° 132° (SE) 2,976 9.6 14.3°
Sets 18:38:10 0° 115° (ESE) 3,886 10.0 13.6°
